Regional Weather Roundup
Issued by NWS Raleigh/Durham, NC

Home | Current Version | Previous Version | Text Only | Print | Product List | Glossary On
Versions: 1 2 3 4 5 6 7 8 9 10 11 12 13 14 15 16 17 18 19 20 21 22 23 24 25 26 27 28 29 30 31 32 33 34 35 36 37 38 39 40 41 42 43 44 45 46 47 48 49 50
000
ASUS42 KRAH 212010
RWRRAH
NORTH CAROLINA WEATHER ROUNDUP
NATIONAL WEATHER SERVICE RALEIGH NC
400 PM EDT TUE OCT 21 2014

NOTE: "FAIR" INDICATES FEW OR NO CLOUDS BELOW 12,000 FEET WITH NO
SIGNIFICANT WEATHER AND/OR OBSTRUCTIONS TO VISIBILITY.

NCZ001-053-055-056-065-067-212100-
WESTERN NORTH CAROLINA

CITY           SKY/WX    TMP DP  RH WIND       PRES   REMARKS
ASHEVILLE      SUNNY     64  41  42 N18G26    29.94R
JEFFERSON      CLOUDY    53  36  52 W7        29.94S
MORGANTON      SUNNY     69  37  31 NW13G24   29.94S
HICKORY        MOSUNNY   69  42  37 NW13G18   29.88F
RUTHERFORDTON  SUNNY     72  42  34 NW13G18   29.90S
MOUNT AIRY     MOSUNNY   67  45  45 W8G17     29.90S
BOONE          MOSUNNY   55  38  54 W16G29    29.94F
$$

NCZ021-022-025-041-071-084-088-212100-
CENTRAL NORTH CAROLINA

CITY           SKY/WX    TMP DP  RH WIND       PRES   REMARKS
CHARLOTTE      MOSUNNY   74  41  30 W12G17    29.87F
GREENSBORO     PTSUNNY   70  43  37 NW15      29.85S
WINSTON-SALEM  CLOUDY    68  39  34 W8        29.87S
RALEIGH-DURHAM PTSUNNY   71  48  43 VRB5      29.84S
FORT BRAGG     PTSUNNY   74  49  40 NW7       29.83S
FAYETTEVILLE   MOSUNNY   77  46  33 W5        29.83F
BURLINGTON     PTSUNNY   72  42  34 NW13      29.83F
LAURINBURG     SUNNY     75  46  35 NW8       29.85S
$$

NCZ011-015-027-028-043-044-047-080-103-212100-
NORTHEASTERN NORTH CAROLINA

CITY           SKY/WX    TMP DP  RH WIND       PRES   REMARKS
ROCKY MT-WILSO MOSUNNY   72  48  42 W7        29.83S
GREENVILLE     SUNNY     73  50  43 W5        29.85S
WASHINGTON     MOSUNNY   74  50  42 SW10      29.82S
ELIZABETH CITY MOSUNNY   72  54  53 SW8       29.81S
MANTEO         MOSUNNY   72  56  58 CALM      29.82F
CAPE HATTERAS  SUNNY     71  60  68 SW7       29.85S
$$

NCZ078-087-090-091-093-098-101-212100-
SOUTHEASTERN NORTH CAROLINA

CITY           SKY/WX    TMP DP  RH WIND       PRES   REMARKS
LUMBERTON      SUNNY     77  47  34 W7        29.83F
GOLDSBORO      SUNNY     75  53  45 W8        29.82S
KINSTON        SUNNY     75  46  35 W6        29.84S
KENANSVILLE    MOSUNNY   75  46  35 W6        29.85S
NEW BERN       MOSUNNY   78  50  37 SW8       29.83F
CHERRY POINT   MOSUNNY   75  58  55 S10       29.84F
BEAUFORT       SUNNY     73  61  65 SW12      29.84F
JACKSONVILLE   MOSUNNY   75  51  43 SW3       29.82F
WILMINGTON     SUNNY     78  52  40 SW8       29.83F
$$




USA.gov is the U.S. government's official web portal to all federal, state and local government web resources and services.